Volver al catálogo

CZ-6A DEB

ActivoSSO
NORAD 54510·DEBRIS·🇨🇳 China

Lanzado Nov 11, 2022 desde Taiyuan Satellite Launch Center

Loading…

Próximos Pases (próximas 24 horas)

TLE

ActualizadoSource: Space-Track

Época: Sep 14, 2026, 08:45 UTC

1 54510U 22151JN  26257.36501876  .00001581  00000-0  46075-3 0  9994
2 54510  98.6691 306.9743 0060539  30.4997 329.9691 14.44547521201361

Sigue CZ-6A DEB en tiempo real con AllMySat

Download on the App Store